Location: ???????
(55.4362°N, 38.1183°E)
Time: 03:37:49
(UTC+00:00)

Helios 1B rocket - Pass Details

Date: 17 June 2021
Orbit: 573 x 583 km, 98.2° (Epoch: 26 July)

Event Time Altitude Azimuth Distance (km) Brightness Sun altitude
Rises 22:57:39 0° 20° (NNE) 2,807 8.4 -8.9°
Reaches altitude 10° 22:59:56 10° 27° (NNE) 1,901 6.7 -8.8°
Maximum altitude 23:03:50 41° 99° (E) 850 3.4 -8.6°
Drops below altitude 10° 23:07:41 10° 170° (S) 1,881 4.5 -8.4°
Enters shadow 23:08:15 - 172° (S) 2,104 4.8 -8.3°
